Location: Madrid
(40.4167°N, 3.7036°W)
Time: 02:57:51
(UTC+00:00)

ISS - Pass Details

Date: 07 May 2026
Orbit: 414 x 424 km, 51.6° (Epoch: 15 May)

Event Time Altitude Azimuth Distance (km) Brightness Sun altitude
Exits shadow 02:52:37 - 314° (NW) 2,153 -0.1 -21.6°
Reaches altitude 10° 02:54:21 10° 324° (NW) 1,498 -0.8 -21.4°
Maximum altitude 02:57:20 28° 26° (NNE) 811 -1.7 -21.0°
Drops below altitude 10° 03:00:18 10° 88° (E) 1,498 -0.4 -20.6°
Sets 03:02:35 0° 100° (E) 2,361 0.5 -20.3°
